Location: Ústí nad Labem
(50.6611°N, 14.0531°E)
Time: 11:08:30
(UTC+02:00)

Envisat - Pass Details

Date: 07 March 2024
Orbit: 762 x 764 km, 98.3° (Epoch: 21 April)

Event Time Altitude Azimuth Distance (km) Brightness Sun altitude
Rises 02:33:53 0° 23° (NNE) 3,243 7.1 -36.0°
Reaches altitude 10° 02:36:36 10° 37° (NE) 2,311 6.2 -35.7°
Enters shadow 02:40:30 25° 87° (E) 1,510 4.8 -35.3°
